Location: Sungai Anya
(2.6167°N, 114.0500°E)
Time: 11:04:49
(UTC+00:00)

Cosmos 1455 Rocket - Pass Details

Date: 19 October 2021
Orbit: 604 x 630 km, 82.5° (Epoch: 28 November)

Event Time Altitude Azimuth Distance (km) Brightness Sun altitude
Rises 10:39:42 0° 195° (SSW) 2,867 6.8 -8.1°
Reaches altitude 10° 10:41:58 10° 201° (SSW) 1,965 6.1 -8.6°
Maximum altitude 10:46:08 46° 274° (W) 827 4.3 -9.7°
Drops below altitude 10° 10:50:20 10° 347° (NNW) 1,973 5.7 -10.7°
Sets 10:52:37 0° 354° (N) 2,881 6.5 -11.3°
